Theta_e
314 315 323 318 301 299 296 297 303 303 304 310 311 309 308 309 307 306 319 315 320 336 344 345 347 349 350 350 349 350 352 352 351 350 349 349 348 347 346 347 347 347 344 343 341 340 342 344 343
311 318 321 311 296 292 295 301 300 303 308 309 310 310 308 307 318 317 312 313 317 321 338 346 344 348 349 349 349 348 350 352 352 351 351 349 349 348 347 346 346 347 346 345 344 344 343 342 342
312 320 310 301 297 292 295 299 301 303 304 304 305 309 309 309 312 309 309 313 316 311 320 336 343 347 348 349 349 349 349 349 350 351 350 350 349 349 347 347 346 347 346 346 344 343 343 342 342
314 312 306 297 294 298 298 300 300 302 303 303 303 301 309 311 311 307 309 310 312 311 311 323 331 347 348 348 349 348 348 349 348 348 348 349 348 348 347 346 346 346 346 346 343 341 341 342 341
312 306 296 294 295 299 301 302 299 298 300 302 301 301 302 310 310 309 307 307 308 312 311 314 319 332 345 346 348 347 347 348 347 347 347 347 347 347 346 346 346 346 345 346 344 342 341 340 339
301 302 292 291 294 298 300 298 297 298 299 299 298 298 301 312 311 306 306 306 308 309 313 313 315 317 326 343 345 346 346 347 347 347 346 346 346 346 346 346 345 345 345 344 343 341 340 339 338
298 296 292 293 293 295 296 297 296 295 295 296 298 293 301 307 311 303 304 306 307 308 311 313 316 315 318 327 337 341 344 344 345 345 345 343 343 344 344 343 344 344 343 343 342 340 339 339 337
300 296 291 292 291 292 295 295 295 294 294 298 297 294 296 304 303 303 305 307 307 309 309 311 314 314 317 319 323 332 336 340 341 340 338 336 336 338 338 337 341 343 342 342 340 338 338 337 336
298 291 289 290 289 292 295 291 294 295 292 294 296 295 298 300 302 302 303 305 307 307 309 310 310 311 314 317 321 329 330 331 334 335 332 331 341 341 339 336 336 340 340 340 339 338 337 335 332
294 290 289 291 292 290 291 290 291 291 292 293 295 299 300 301 301 300 301 301 303 305 306 308 310 310 313 315 325 329 339 340 341 341 340 341 341 341 339 333 330 335 334 337 337 337 334 329 329
291 289 290 289 291 291 290 290 294 291 290 294 293 296 299 299 300 300 301 302 303 305 307 308 309 310 312 317 324 327 331 338 339 341 340 340 341 340 339 340 336 339 328 335 333 334 331 330 328
288 289 289 290 291 290 289 293 291 293 293 297 297 298 298 298 299 299 300 301 302 304 305 308 310 309 310 315 320 324 322 322 336 337 340 339 339 338 337 337 337 337 335 333 332 331 330 329 330
289 290 291 293 293 292 293 291 291 292 296 298 298 297 297 298 298 300 300 301 302 302 304 306 307 308 309 311 315 319 324 323 323 329 337 340 338 337 336 335 335 334 334 332 331 330 328 327 326
292 291 292 292 292 292 290 290 292 293 296 295 295 296 297 297 297 297 297 298 299 301 303 305 306 308 310 309 311 314 318 323 320 322 332 336 338 338 336 335 332 334 334 333 331 330 328 327 326
291 288 291 291 291 290 291 287 289 294 295 293 294 295 296 296 295 294 296 296 297 299 301 302 305 307 307 307 309 313 315 321 320 320 321 322 334 337 337 335 333 332 334 331 329 328 327 326 323
288 287 285 291 290 291 289 283 291 295 293 292 293 294 293 292 293 294 295 295 296 297 298 300 302 304 306 307 309 309 312 314 318 322 323 321 324 330 336 335 332 332 333 330 327 327 325 324 322
288 282 284 286 291 289 287 284 291 294 292 291 292 291 290 291 293 294 294 294 295 296 297 298 300 302 304 306 309 309 310 314 317 319 322 323 327 331 333 333 333 332 331 331 329 327 325 323 321
281 282 283 284 288 288 286 286 290 292 291 290 289 289 290 290 291 292 293 294 294 295 297 298 300 301 303 305 307 309 310 312 315 319 319 325 326 329 331 331 332 331 329 329 328 326 326 324 323
285 283 283 286 289 285 285 285 288 288 288 287 288 289 289 289 292 292 292 293 293 294 295 297 298 300 302 303 305 307 307 310 312 316 320 319 322 324 327 329 327 330 329 327 328 326 324 324 324
285 284 283 286 287 285 285 284 288 287 287 287 287 287 288 288 289 289 290 291 292 292 294 296 298 300 302 304 305 307 308 309 311 316 315 318 318 319 325 328 327 328 328 326 325 325 322 323 322
285 284 282 281 284 286 283 284 284 287 288 288 288 288 288 287 286 287 288 289 291 291 292 294 296 298 302 303 305 306 308 309 310 311 314 320 318 318 326 327 327 328 327 325 325 324 321 318 318
280 286 284 282 279 279 283 276 283 285 285 285 286 286 286 286 286 286 287 287 288 290 293 293 295 298 302 303 303 304 305 304 307 310 315 319 319 317 317 325 323 322 323 324 324 324 321 320 315
282 286 283 280 278 278 280 277 281 283 282 282 284 285 285 285 285 285 286 287 288 290 291 292 295 297 302 303 302 304 306 307 308 310 312 315 316 316 318 320 323 322 321 323 322 321 321 320 318
286 284 284 280 280 276 275 276 278 280 279 282 284 284 284 284 284 285 286 287 288 290 290 291 293 297 303 303 302 305 304 306 308 310 311 313 314 315 316 319 323 323 322 323 322 322 321 321 321
284 282 277 275 276 275 276 276 280 280 282 283 282 283 283 283 283 283 283 285 286 287 289 289 292 294 300 302 304 305 306 307 306 308 310 310 312 313 314 315 319 322 323 322 322 321 320 321 320
279 279 275 269 271 273 279 273 279 281 285 285 284 283 283 282 282 282 283 284 285 286 288 289 290 292 296 299 303 305 307 307 308 308 309 310 310 312 313 314 314 320 322 323 322 321 321 321 320
280 279 280 274 275 270 277 280 284 283 283 282 282 281 280 280 281 281 282 283 284 285 286 287 289 290 293 295 299 300 301 304 306 308 310 310 310 309 311 310 309 313 322 323 323 321 320 320 320
282 282 276 276 269 268 275 276 277 277 278 280 280 279 280 280 280 281 281 282 284 285 285 286 288 288 291 292 294 296 297 298 300 304 305 307 308 306 305 303 302 305 313 318 318 317 317 319 317
280 279 278 277 275 271 269 274 279 277 279 278 280 280 279 279 279 280 281 282 283 284 284 285 286 287 288 290 291 293 294 296 297 298 300 302 301 299 301 299 299 299 300 304 302 300 300 300 299
283 280 279 274 272 275 274 274 283 281 281 281 280 280 280 280 280 280 280 281 281 282 283 283 284 285 287 288 289 290 292 293 294 295 297 298 295 296 298 296 295 296 298 300 297 296 296 296 295
Wind_Speed
15 6 4 5 6 6 12 9 11 2 3 5 4 7 7 14 7 3 3 15 18 15 12 12 10 10 10 11 11 11 13 15 16 16 15 16 17 17 16 14 14 13 14 13 12 13 13 13 12
9 3 5 3 7 11 9 14 6 8 10 6 8 9 9 7 8 7 6 17 15 16 17 8 11 11 11 10 11 12 13 13 15 16 16 16 16 17 17 15 13 15 14 13 11 10 13 13 13
7 5 5 5 9 14 11 7 5 5 5 6 5 1 7 5 9 5 11 14 14 14 15 16 8 13 12 11 12 12 13 14 14 16 17 17 17 16 16 15 13 13 13 16 15 13 15 15 13
5 6 5 8 16 13 12 5 3 4 4 1 5 9 6 5 3 7 12 14 14 12 15 14 24 16 15 14 12 14 13 14 14 15 15 16 17 16 15 14 12 12 12 15 16 15 15 13 13
5 3 9 10 18 17 2 5 6 9 5 3 5 5 5 5 4 11 14 14 14 13 10 13 20 21 15 15 15 14 15 15 15 15 15 15 16 16 15 14 14 12 12 12 15 15 14 15 13
4 5 9 13 17 16 3 7 10 10 7 7 7 10 6 8 1 13 15 15 14 12 9 9 10 16 19 14 15 15 15 15 15 16 15 15 15 15 16 15 14 13 13 13 14 15 15 15 14
7 6 13 16 16 12 3 7 8 9 10 7 7 8 6 3 3 16 16 14 13 11 10 8 8 9 11 15 11 14 16 15 14 14 15 14 13 14 14 14 15 14 15 14 15 14 15 16 16
4 4 7 6 9 10 5 7 4 9 8 6 3 6 6 10 20 16 15 14 12 10 9 9 7 8 7 6 12 11 13 15 14 14 12 12 12 12 11 11 14 16 16 14 15 14 14 14 14
2 5 7 8 5 4 3 7 9 6 13 14 13 14 15 18 15 15 15 13 11 9 11 9 9 7 8 7 6 9 12 12 14 13 13 11 13 14 15 14 13 15 14 14 17 16 13 13 12
4 5 7 6 6 9 12 11 11 9 14 17 13 13 10 14 16 16 15 14 14 13 12 10 11 8 7 6 6 6 8 10 13 14 13 12 13 12 15 15 12 12 13 14 16 16 14 11 8
3 4 6 4 6 7 10 14 14 15 15 11 12 15 15 16 14 14 14 15 15 15 12 12 11 10 8 4 3 3 4 4 8 16 14 13 10 10 10 8 9 10 11 9 12 12 9 11 8
5 2 4 5 4 7 11 13 14 16 21 19 17 17 15 12 13 15 16 17 18 18 17 14 12 9 8 6 3 3 3 3 4 8 16 11 8 10 9 8 11 11 10 12 11 8 9 11 11
4 4 7 9 11 12 13 17 17 20 18 17 15 12 14 13 16 17 18 18 18 18 18 17 15 12 8 6 7 4 4 2 4 3 10 12 11 11 10 10 10 10 11 12 11 10 10 9 10
7 10 13 6 7 10 13 19 15 8 4 9 10 12 12 16 17 16 18 18 17 19 19 18 16 14 11 9 9 7 4 3 2 5 6 10 12 12 12 11 10 11 11 11 11 11 10 9 9
6 7 10 3 4 11 7 20 9 10 8 12 16 17 16 13 15 15 16 17 17 16 18 19 18 15 14 13 10 8 7 3 4 3 5 7 9 15 15 12 10 11 12 13 11 11 9 9 9
6 2 8 2 2 1 5 12 3 7 13 19 15 12 9 11 12 14 16 18 18 18 18 18 16 17 16 14 11 8 8 7 4 5 3 6 8 9 14 14 12 11 11 11 12 11 10 10 10
3 7 12 11 9 8 3 18 14 18 15 15 10 6 7 11 14 17 19 19 19 19 19 18 18 18 17 15 12 11 10 9 5 4 4 6 6 10 11 11 12 15 11 12 11 11 11 10 9
10 10 11 16 10 13 16 22 14 14 11 6 2 5 9 14 18 19 22 22 19 18 19 19 15 18 16 12 11 9 9 9 7 6 4 8 4 6 7 5 13 13 11 12 12 14 12 11 11
9 12 15 19 16 12 14 22 17 3 1 2 4 10 13 18 21 23 21 21 21 18 19 19 18 17 13 10 9 10 9 8 9 7 7 2 5 6 6 5 12 8 11 15 16 14 15 11 10
10 11 12 11 5 18 15 18 17 6 3 4 8 14 19 23 24 21 21 22 19 19 19 19 18 18 14 10 9 9 8 8 7 6 8 8 3 1 8 6 7 14 9 16 15 15 11 9 8
13 5 15 20 26 9 10 13 7 9 5 6 9 18 22 24 23 21 21 22 20 19 18 18 20 21 18 17 10 10 9 8 7 7 7 8 5 3 6 7 7 14 10 11 13 12 15 10 7
6 13 20 18 9 6 6 8 12 3 5 2 17 21 23 23 22 19 21 20 20 18 16 17 19 19 18 17 13 16 10 10 8 8 5 5 6 3 4 4 3 4 3 7 11 9 9 9 8
9 19 20 8 6 8 4 6 6 2 4 14 21 24 25 24 23 24 22 20 19 17 14 16 18 18 19 15 14 12 12 8 7 7 8 8 4 4 1 1 10 8 7 8 11 7 10 4 3
13 13 11 5 4 6 4 7 7 7 8 21 25 26 25 24 22 22 22 21 17 15 13 15 17 18 16 12 14 14 12 10 7 7 6 7 5 4 4 5 4 8 9 12 11 14 14 12 10
10 10 5 3 4 9 4 8 4 4 9 19 24 25 24 21 20 19 20 19 18 17 15 14 15 17 17 10 10 10 11 9 9 9 6 7 6 6 6 7 5 7 8 9 9 11 12 14 16
4 4 4 7 10 13 9 6 5 2 10 19 20 21 21 21 19 19 18 18 17 17 16 14 13 14 13 13 10 8 7 4 6 8 6 6 4 5 3 5 8 11 12 14 12 10 9 11 10
3 3 3 6 6 5 4 6 13 3 14 18 20 22 21 21 19 19 19 17 16 16 17 14 13 13 12 12 9 5 7 7 7 8 6 5 4 4 4 6 7 16 15 16 12 8 11 10 11
2 2 3 4 7 9 9 11 6 15 19 17 19 19 19 19 19 18 17 17 15 15 15 14 12 12 11 10 9 7 7 7 8 8 8 4 1 3 5 5 7 8 5 6 8 9 5 10 7
4 4 3 2 4 6 9 5 2 7 12 16 17 18 18 18 17 16 16 16 15 13 12 13 12 12 11 10 9 8 7 7 8 7 6 3 3 5 5 6 6 5 5 3 7 7 7 7 6
3 3 4 3 1 6 8 10 5 3 8 13 15 16 16 15 16 15 15 15 15 15 13 12 12 11 11 11 9 8 8 7 6 5 3 3 4 5 5 6 10 6 2 3 9 10 8 9 9
Wind_Direction
302 282 256 221 233 238 258 239 264 242 239 34 344 280 304 246 301 15 347 4 357 342 315 185 188 182 206 200 198 190 183 175 177 177 177 172 174 173 175 175 172 172 163 157 167 168 170 157 146
302 280 228 228 251 239 257 218 205 251 27 321 271 256 250 257 33 74 1 353 7 350 334 183 188 188 196 206 204 208 190 185 181 180 181 178 176 176 178 176 178 176 168 162 154 164 169 154 149
272 239 232 228 239 248 267 67 3 344 320 300 287 266 338 33 72 42 5 350 0 7 351 359 204 193 193 203 197 205 201 196 193 190 184 180 181 180 179 178 181 175 170 158 153 140 140 142 139
218 199 234 246 249 252 283 44 23 295 170 47 345 267 115 39 60 26 1 357 357 18 1 360 355 208 194 197 203 198 203 200 202 196 192 188 186 183 179 181 179 172 170 177 161 152 144 145 144
225 258 244 241 258 267 138 348 314 283 302 288 350 261 322 122 109 18 359 353 352 351 8 1 9 356 219 202 199 205 204 203 203 200 200 195 190 184 186 180 183 177 182 189 171 157 154 144 147
214 284 238 247 255 253 26 1 306 283 288 296 288 320 273 106 195 4 345 340 341 340 357 350 6 360 354 244 206 202 211 211 205 203 202 195 194 187 183 184 187 189 184 171 166 160 151 145 145
277 237 254 265 276 277 0 356 313 332 294 296 341 283 284 219 103 351 333 330 325 333 333 349 347 357 346 353 268 214 206 211 212 205 200 197 189 185 183 184 189 191 185 179 170 163 157 153 152
284 270 260 254 278 281 49 327 342 305 301 335 295 258 281 342 344 331 324 322 319 325 326 342 341 343 334 334 327 259 228 205 205 205 202 196 185 183 185 182 197 197 184 178 168 167 161 164 151
300 245 262 271 288 327 357 325 312 321 273 278 270 277 299 307 320 319 319 318 324 323 323 333 334 337 325 321 303 292 232 244 215 207 203 191 208 202 193 197 179 185 180 175 168 164 169 160 150
284 264 356 11 324 295 316 307 314 299 296 282 275 269 297 329 322 315 316 317 318 322 325 323 327 324 321 314 318 304 270 220 225 217 206 207 212 207 201 187 172 178 167 169 170 164 161 166 174
357 306 8 338 328 315 301 290 284 272 274 280 325 311 314 319 309 312 316 313 311 313 310 315 315 318 309 278 292 296 307 254 234 221 212 206 211 211 206 184 180 183 178 179 175 173 170 194 186
284 316 302 308 305 291 283 297 284 272 271 303 307 308 311 313 318 322 316 314 316 309 302 303 304 308 306 301 267 280 296 345 283 239 215 208 205 211 206 196 185 191 184 193 186 183 179 194 228
266 332 288 275 289 283 294 287 280 278 290 298 300 300 300 300 326 324 322 310 307 305 306 305 303 296 291 293 290 281 274 265 301 306 248 214 205 206 196 206 185 195 187 192 188 187 188 193 219
330 307 293 294 309 300 292 289 284 256 289 275 284 283 292 299 328 320 315 320 316 315 309 304 298 293 284 272 275 274 270 271 263 298 298 242 216 203 196 201 198 193 196 190 188 190 186 189 204
321 321 298 238 268 303 326 280 219 255 249 288 301 300 301 330 321 318 323 319 316 309 306 302 297 287 278 275 265 265 260 226 237 247 283 344 257 217 192 198 201 194 186 191 194 192 184 189 193
326 282 328 140 239 312 307 285 257 302 301 295 305 304 339 324 320 323 326 320 317 309 302 302 297 292 286 277 268 256 250 246 229 233 211 281 263 268 219 195 193 193 194 190 196 188 183 188 189
67 310 312 327 228 317 251 295 298 303 303 300 308 340 308 310 318 324 322 319 311 307 302 296 293 288 282 276 270 257 256 246 237 235 229 249 275 262 244 243 190 181 185 191 191 190 188 180 190
316 309 306 306 310 315 292 282 297 315 310 306 323 296 313 321 321 319 314 314 310 304 300 295 288 285 285 276 267 259 239 244 228 236 219 223 250 279 242 228 226 191 180 190 193 189 189 182 188
311 309 300 300 315 301 295 295 292 359 174 203 303 325 324 319 319 321 321 315 310 304 301 299 291 286 278 271 257 243 244 231 233 216 238 197 210 273 273 262 220 221 216 190 192 191 183 187 187
308 298 296 312 260 322 296 292 293 204 252 292 324 327 322 323 323 325 319 314 313 310 302 300 297 291 278 268 260 261 248 237 243 211 229 225 196 94 254 244 241 220 203 194 199 187 181 188 173
327 295 314 310 322 271 295 268 188 211 234 273 313 329 329 329 326 325 322 318 316 315 313 313 304 293 280 270 270 252 251 252 242 227 242 219 209 289 208 218 236 211 212 206 197 203 176 170 177
309 349 316 315 321 308 22 291 318 132 237 285 333 332 329 333 329 324 323 320 317 313 313 307 296 284 278 263 254 254 234 232 230 234 243 232 220 236 45 144 150 152 164 185 189 193 169 179 181
269 320 304 314 281 312 159 262 328 192 320 331 328 333 338 333 330 324 323 320 314 314 322 308 300 293 275 257 250 244 234 250 255 256 210 238 215 235 35 352 189 204 165 184 162 161 153 131 177
312 302 295 248 250 251 102 2 290 11 339 326 331 338 335 330 326 321 321 320 318 318 324 316 309 306 282 247 242 237 240 235 239 254 253 249 248 267 303 71 227 201 203 182 175 174 165 167 212
354 329 324 290 279 308 156 307 322 18 324 335 329 331 333 331 326 323 322 321 321 323 327 322 316 318 331 254 230 229 232 240 258 254 252 266 261 253 278 55 263 208 207 188 179 191 183 193 191
347 335 359 307 321 314 297 242 323 199 331 336 328 334 332 333 328 326 324 321 322 323 324 320 319 324 340 338 355 2 312 273 270 258 257 263 282 257 279 352 8 279 203 210 198 198 196 198 204
97 307 19 270 251 265 232 250 269 221 340 334 335 339 336 335 332 328 328 327 326 326 327 326 326 329 339 341 337 330 325 314 305 292 291 262 267 325 332 45 347 316 199 206 192 198 204 195 195
282 69 244 195 297 309 308 293 283 345 335 337 339 340 335 334 333 331 330 328 327 332 331 327 332 336 335 338 343 348 335 315 299 288 272 280 328 21 343 55 17 339 307 205 169 185 167 196 197
177 207 211 284 267 304 310 322 82 342 340 341 338 339 335 335 335 335 332 332 333 337 335 333 343 344 342 341 342 339 333 317 297 293 297 334 41 43 308 55 91 13 354 116 97 84 80 86 83
225 253 224 269 226 255 272 276 144 16 13 351 339 337 335 335 337 337 338 340 341 345 343 344 345 344 343 341 338 333 325 325 310 299 324 352 59 55 307 78 70 40 359 94 86 86 71 84 81